TimePDT,TemperatureF,Dew PointF,Humidity,Sea Level PressureIn,VisibilityMPH,Wind Direction,Wind SpeedMPH,Gust SpeedMPH,PrecipitationIn,Events,Conditions,WindDirDegrees,DateUTC
12:48 AM,55.0,19.9,25,30.07,10.0,NW,5.8,-,N/A,,Clear,310,2013-03-12 07:48:00
1:48 AM,57.0,9.0,15,30.06,10.0,NW,9.2,-,N/A,,Clear,310,2013-03-12 08:48:00
2:48 AM,57.0,9.0,15,30.05,10.0,NNW,8.1,-,N/A,,Clear,340,2013-03-12 09:48:00
3:48 AM,55.9,10.9,17,30.03,10.0,NNE,4.6,-,N/A,,Clear,30,2013-03-12 10:48:00
4:48 AM,55.9,10.0,16,30.03,10.0,NE,5.8,-,N/A,,Clear,40,2013-03-12 11:48:00
5:48 AM,55.0,10.9,17,30.04,10.0,ENE,6.9,-,N/A,,Clear,60,2013-03-12 12:48:00
6:48 AM,54.0,12.0,19,30.06,10.0,ENE,11.5,-,N/A,,Clear,60,2013-03-12 13:48:00
7:48 AM,55.9,15.1,20,30.08,10.0,ENE,12.7,-,N/A,,Clear,60,2013-03-12 14:48:00
8:48 AM,61.0,16.0,17,30.09,10.0,ENE,18.4,-,N/A,,Clear,70,2013-03-12 15:48:00
9:48 AM,63.0,19.9,19,30.11,10.0,ENE,15.0,24.2,N/A,,Clear,60,2013-03-12 16:48:00
10:48 AM,64.9,18.0,16,30.12,10.0,ENE,13.8,23.0,N/A,,Clear,70,2013-03-12 17:48:00
11:48 AM,68.0,19.0,15,30.12,10.0,ENE,11.5,17.3,N/A,,Clear,60,2013-03-12 18:48:00
12:48 PM,69.1,18.0,14,30.11,10.0,East,12.7,19.6,N/A,,Clear,80,2013-03-12 19:48:00
1:48 PM,70.0,16.0,13,30.09,10.0,ENE,10.4,17.3,N/A,,Clear,70,2013-03-12 20:48:00
2:48 PM,72.0,17.1,12,30.06,10.0,East,12.7,21.9,N/A,,Clear,80,2013-03-12 21:48:00
3:48 PM,72.0,17.1,12,30.06,10.0,ENE,10.4,20.7,N/A,,Clear,70,2013-03-12 22:48:00
4:48 PM,72.0,17.1,12,30.05,10.0,ENE,9.2,-,N/A,,Clear,60,2013-03-12 23:48:00
5:48 PM,70.0,17.1,13,30.05,10.0,East,9.2,-,N/A,,Clear,90,2013-03-13 00:48:00
6:48 PM,66.0,17.1,15,30.08,10.0,ENE,5.8,-,N/A,,Clear,60,2013-03-13 01:48:00
7:48 PM,64.9,15.1,15,30.09,10.0,East,5.8,-,N/A,,Clear,100,2013-03-13 02:48:00
8:48 PM,64.9,14.0,14,30.11,10.0,ESE,3.5,-,N/A,,Clear,110,2013-03-13 03:48:00
9:48 PM,64.9,17.1,16,30.12,10.0,Calm,Calm,-,N/A,,Clear,0,2013-03-13 04:48:00
10:48 PM,64.0,15.1,15,30.12,10.0,Calm,Calm,-,N/A,,Clear,0,2013-03-13 05:48:00
11:48 PM,63.0,16.0,16,30.13,10.0,NE,3.5,-,N/A,,Clear,50,2013-03-13 06:48:00